Weather History for Wheeler AAF, HI

Change the Weather History Date:

Monday, February 27, 2012

  Actual Average Record
Temperature  
Mean Temperature 69 °F -  
Max Temperature 74 °F 74 °F 78 °F (1998)
Min Temperature 64 °F 61 °F 55 °F (2014)
Cooling Degree Days 4    
Growing Degree Days 19 (Base 50)    
Moisture  
Dew Point 62 °F    
Average Humidity 78    
Maximum Humidity 85    
Minimum Humidity 65    
Precipitation  
Precipitation 0.00 in - - ()
Sea Level Pressure  
Sea Level Pressure 30.04 in    
Wind  
Wind Speed 5 mph (ESE)    
Max Wind Speed 17 mph    
Max Gust Speed 18 mph    
Visibility 10 miles    
Events Rain    
Averages and records for this station are not official NWS values.
T = Trace of Precipitation, MM = Missing Value Source: NWS Daily Summary

Daily Weather History Graph

Daily Weather History Graph

Search for Another Location

Airport:

Trip Planner

Search our weather history database for the weather conditions in past years. The results will help you decide how hot, cold, wet, or windy it might be!

Date:

Astronomy

Feb. 27, 2012 Rise Set
Actual Time 6:54 AM HST 6:35 PM HST
Civil Twilight 6:32 AM HST 6:57 PM HST
Nautical Twilight 6:06 AM HST 7:23 PM HST
Astronomical Twilight 5:40 AM HST 7:49 PM HST
Moon 10:20 AM HST (2/27) 11:46 PM HST (2/27)
Length of Visible Light 12h 25m
Length of Day
11h 40m
Waxing Crescent, 30% of the Moon is Illuminated
Feb 27
Waxing Crescent
Feb 29
First Quarter
Mar 7
Full
Mar 14
Last Quarter
Mar 22
New

Hourly Weather History & Observations

Time (HST) Temp. Dew Point Humidity Pressure Visibility Wind Dir Wind Speed Gust Speed Precip Events Conditions
12:30 AM 68.0 °F 60.8 °F 78% 30.04 in 10.0 mi Variable 3.5 mph - N/A Rain Light Rain
12:39 AM 68.0 °F 60.8 °F 78% 30.04 in 10.0 mi Variable 4.6 mph - N/A   Clear
12:55 AM 67.5 °F 60.6 °F 79% 30.04 in 10.0 mi SSE 6.9 mph - 0.00 in   Clear
1:49 AM 66.2 °F 60.8 °F 83% 30.03 in 10.0 mi South 4.6 mph - N/A   Light Drizzle
1:55 AM 65.5 °F 60.6 °F 84% 30.03 in 10.0 mi South 3.5 mph - 0.00 in   Light Drizzle
1:58 AM 66.2 °F 60.8 °F 83% 30.02 in 10.0 mi Variable 3.5 mph - N/A   Clear
2:55 AM 65.7 °F 60.6 °F 84% 30.01 in 10.0 mi Calm Calm - 0.00 in   Partly Cloudy
3:55 AM 66.4 °F 61.3 °F 84% 30.02 in 10.0 mi SSW 4.6 mph - N/A   Partly Cloudy
4:55 AM 66.2 °F 61.2 °F 84% 30.02 in 10.0 mi SSE 3.5 mph - N/A   Clear
5:55 AM 64.9 °F 60.4 °F 85% 30.03 in 10.0 mi South 3.5 mph - N/A   Clear
6:55 AM 64.9 °F 60.1 °F 84% 30.05 in 10.0 mi Calm Calm - N/A   Clear
7:55 AM 66.6 °F 60.4 °F 81% 30.07 in 10.0 mi Calm Calm - N/A   Clear
9:55 AM 73.2 °F 61.9 °F 68% 30.08 in 10.0 mi ESE 9.2 mph 17.3 mph N/A   Scattered Clouds
10:06 AM 73.4 °F 62.6 °F 69% 30.08 in 10.0 mi East 13.8 mph - N/A   Mostly Cloudy
10:13 AM 73.4 °F 62.6 °F 69% 30.08 in 10.0 mi East 10.4 mph - N/A   Mostly Cloudy
10:14 AM 73.4 °F 62.6 °F 69% 30.08 in 10.0 mi ESE 9.2 mph - N/A   Mostly Cloudy
10:55 AM 73.9 °F 61.7 °F 65% 30.08 in 10.0 mi East 15.0 mph 18.4 mph N/A   Scattered Clouds
11:55 AM 74.1 °F 62.6 °F 67% 30.05 in 10.0 mi East 13.8 mph - N/A   Mostly Cloudy
1:28 PM 73.4 °F 64.4 °F 73% 30.02 in 9.0 mi ESE 6.9 mph - N/A   Light Drizzle
1:40 PM 71.6 °F 64.4 °F 78% 30.01 in 10.0 mi Variable 6.9 mph - N/A   Mostly Cloudy
1:55 PM 72.3 °F 64.0 °F 75% 30.01 in 10.0 mi ESE 8.1 mph - 0.00 in   Mostly Cloudy
2:19 PM 73.4 °F 64.4 °F 73% 30.00 in 10.0 mi East 5.8 mph - N/A   Mostly Cloudy
2:32 PM 73.4 °F 64.4 °F 73% 29.99 in 10.0 mi East 8.1 mph - N/A   Mostly Cloudy
2:55 PM 74.5 °F 63.0 °F 67% 29.99 in 10.0 mi ESE 8.1 mph - N/A   Mostly Cloudy
3:55 PM 74.5 °F 62.8 °F 67% 29.98 in 10.0 mi East 17.3 mph - N/A   Partly Cloudy
4:55 PM 72.3 °F 62.2 °F 70% 29.99 in 10.0 mi East 10.4 mph - N/A   Clear
6:55 PM 68.4 °F 62.4 °F 81% 30.03 in 10.0 mi Calm Calm - N/A   Overcast
7:55 PM 67.8 °F 62.4 °F 83% 30.04 in 10.0 mi Variable 3.5 mph - N/A   Scattered Clouds
8:16 PM 68.0 °F 62.6 °F 83% 30.05 in 10.0 mi Calm Calm - N/A   Mostly Cloudy
8:18 PM 68.0 °F 62.6 °F 83% 30.05 in 10.0 mi Calm Calm - N/A   Mostly Cloudy
8:55 PM 68.4 °F 62.1 °F 80% 30.06 in 10.0 mi SE 3.5 mph - N/A   Mostly Cloudy
9:55 PM 67.5 °F 61.3 °F 81% 30.06 in 10.0 mi Calm Calm - N/A   Mostly Cloudy
10:21 PM 68.0 °F 62.6 °F 83% 30.06 in 10.0 mi East 4.6 mph - N/A   Drizzle
10:30 PM 68.0 °F 62.6 °F 83% 30.06 in 10.0 mi ENE 8.1 mph - N/A   Scattered Clouds
10:36 PM 68.0 °F 62.6 °F 83% 30.06 in 10.0 mi ENE 10.4 mph - N/A   Light Drizzle
10:55 PM 67.1 °F 62.2 °F 84% 30.06 in 10.0 mi East 8.1 mph - 0.00 in   Light Drizzle
10:56 PM 68.0 °F 62.6 °F 83% 30.06 in 10.0 mi East 8.1 mph - N/A   Scattered Clouds
11:55 PM 66.4 °F 61.5 °F 84% 30.06 in 10.0 mi Calm Calm - N/A   Mostly Cloudy